Погода в Тимашеве

Россия / Самарская область     53°20′41″N   51°10′43″E
темп.,
°C
ветер,
м/с
пор.,
м/с
влажн.,
%
обл.,
%
осадки,
мм/ч
давл.,
гПа
погр.,
м
24 января, вс
вс2401:00−6ююв5895100 0.3 1024243
04:00−2ююв4697100 0.6 1023176
07:00+1юз49100100 0.8 1023248
10:00+1юз49100100 1.1 1024354
13:00+1юз611100100 0.2 1026377
16:00−1юз4119198 0.2 1027322
19:00−3ююз499390 0.0 1028183
22:00−4ююз4109498 0.0 1029216
25 января, пн
пн2501:00−4ююз5119578 0.0 1030257
04:00−2ююз699788 0.0 1030390
07:00−2ююз5897100 0.0 1031505
10:00−1ю5894100 0.1 1032610
13:000ю6989100 0.0 1031645
16:00−1ююв5893100 0.1 1031453
19:00−4ю6993100 0.0 1031506
22:00−3ю41096100 0.1 1030593
26 января, вт
вт2601:00−2ю51094100 0.1 1030595
04:00−1ю51091100 0.1 1030562
07:00−2ю51092100 0.0 1029576
10:00−2ююв61092100 0.0 1030527
13:00−4ю61094100 0.0 1029458
16:00−5ююв51092100 0.1 1029385
19:00−6ююв51391100 0.0 1029364
22:00−7ю41292100 0.0 1028361
27 января, ср
ср2701:00−7ююв4995100 0.0 1029256
04:00−7ююв51094100 0.0 1028297
07:00−7ююв51093100 0.0 1028331
10:00−7ююв51093100 0.0 1028337
13:00−6ю5109194 0.0 1028361
16:00−7ююв5109154 0.0 1027268
19:00−9ююв499235 0.0 1027187
22:00−8ююв5108968 0.0 1027216
28 января, чт
чт2801:00−8ююв51187100 0.0 1026257
04:00−8юв51287100 0.0 1025276
07:00−9юв51288100 0.0 1025309
10:00−9юв61287100 0.0 1024335
13:00−7юв61286100 0.0 1023390
16:00−6юв61387100 0.0 1021356
19:00−7юв61386100 0.0 1020330
22:00−8юв51287100 0.0 1019338